Home > Weather > Portland > Past weeks

Flag for U.S.A. Weather for the Past 2 Weeks in Portland, Maine, U.S.A.

Now
31 °F

Clear.


Feels Like: 21 °F
Forecast: 21 / 28 °F
Wind: 13 mph from Northeast

Location: Portland - Portland International Jetport

Current Time: Feb 7, 2016 at 11:35:58 PM

Latest Report: Feb 7, 2016 at 10:51 PM


Visibility: 10 mi

Pressure: 30.15 "Hg

Humidity: 57%

Dew point: 17 °F

Location of PortlandLocation

Historic Weather in Portland — Graph

°F

Portland Temperature Yesterday

Maximum temperature yesterday: 35 °F (at 1:51 PM)
Minimum temperature yesterday: 13 °F (at 5:51 AM)
Average temperature yesterday: 26 °F

High & Low Weather Summary for the Past Weeks

 TemperatureHumidityPressure
High58 °F (Feb 1, 11:51 AM)100% (Feb 3, 10:51 PM)30.43 "Hg (Feb 3, 10:51 PM)
Low13 °F (Feb 6, 5:51 AM)28% (Jan 24, 2:51 PM)29.36 "Hg (Jan 29, 1:51 PM)
Average35 °F69%29.97 "Hg
* Reported Jan 23 9:58 PM — Feb 7 9:51 PM, Portland, Weather by CustomWeather, © 2016

Note: Actual official high and low records may vary slightly from our data, if they occured in-between our weather recording intervals... More about our weather records

Advertising

Portland Weather History for the Previous 24 Hours

 ConditionsComfort  
Time TempWeatherWind HumidityBarometerVisibility
9:51 PM
Sun, Feb 7
32 °FClear.17 mph66%30.15 "Hg10 mi
8:51 PM33 °FClear.8 mph72%30.17 "Hg10 mi
7:51 PM34 °FClear.8 mph73%30.16 "Hg10 mi
6:51 PM35 °FClear.6 mph72%30.16 "Hg10 mi
5:51 PM36 °FPassing clouds.6 mph67%30.16 "Hg10 mi
4:51 PM38 °FScattered clouds.7 mph60%30.14 "Hg10 mi
3:51 PM40 °FSunny.8 mph51%30.14 "Hg10 mi
2:51 PM42 °FPartly sunny.3 mph47%30.13 "Hg10 mi
1:51 PM43 °FScattered clouds.7 mph43%30.14 "Hg10 mi
12:51 PM42 °FPassing clouds.5 mph43%30.15 "Hg10 mi
11:51 AM41 °FPassing clouds.9 mph47%30.12 "Hg10 mi
10:51 AM39 °FSunny.9 mph50%30.14 "Hg10 mi
9:51 AM37 °FSunny.9 mph54%30.13 "Hg10 mi
8:51 AM32 °FSunny.6 mph64%30.13 "Hg10 mi
7:51 AM25 °FSunny.3 mph81%30.12 "Hg10 mi
6:51 AM22 °FSunny.No wind92%30.12 "Hg10 mi
5:51 AM26 °FClear.5 mph81%30.11 "Hg10 mi
4:51 AM27 °FClear.7 mph78%30.11 "Hg10 mi
3:51 AM27 °FClear.7 mph78%30.10 "Hg10 mi
2:51 AM28 °FClear.7 mph78%30.10 "Hg10 mi
1:51 AM28 °FClear.7 mph78%30.13 "Hg10 mi
12:51 AM28 °FClear.7 mph81%30.14 "Hg10 mi
11:51 PM
Sat, Feb 6
29 °FPassing clouds.9 mph79%30.16 "Hg10 mi
Weather by CustomWeather, © 2016

See weather overviewHow to use our weather pages